Hourly Data Report for June 11, 2003

All times are specified in Local Standard Time (LST). Add 1 hour to adjust for Daylight Saving Time where and when it is observed.

TORONTO CITY
ONTARIO

43°40'00.000" N
79°24'00.000" W
112.50 m
6158355
71508
XTO

Download Data

Hourly Data (June 2003)
Hourly Data Report for June 11, 2003
TIME Temp Definition
°C
Dew Point Definition
°C
Rel Hum Definition
%
Wind Dir Definition
10's deg

Wind Spd Definition
km/h
Visibility Definition
km
Stn Press Definition
kPa
Hmdx Definition


Wind Chill Definition


Weather Definition


00:00 14.3 13.7 96 LegendMM LegendMM LegendMM 99.36     LegendNANA
01:00 14.6 14.0 96 LegendMM LegendMM LegendMM 99.35     LegendNANA
02:00 13.7 12.9 95 LegendMM LegendMM LegendMM 99.27     LegendNANA
03:00 13.4 12.6 95 LegendMM LegendMM LegendMM 99.21     LegendNANA
04:00 13.7 13.1 96 LegendMM LegendMM LegendMM 99.16     LegendNANA
05:00 13.4 12.6 95 LegendMM LegendMM LegendMM 99.20     LegendNANA
06:00 14.6 13.2 91 LegendMM LegendMM LegendMM 99.22     LegendNANA
07:00 16.0 13.8 87 LegendMM LegendMM LegendMM 99.25     LegendNANA
08:00 18.1 15.2 83 LegendMM LegendMM LegendMM 99.23     LegendNANA
09:00 20.1 16.9 82 LegendMM LegendMM LegendMM 99.25 25   LegendNANA
10:00 21.4 17.4 78 LegendMM LegendMM LegendMM 99.22 27   LegendNANA
11:00 23.3 18.2 73 LegendMM LegendMM LegendMM 99.27 29   LegendNANA
12:00 25.1 18.6 67 LegendMM LegendMM LegendMM 99.31 32   LegendNANA
13:00 25.5 17.7 62 LegendMM LegendMM LegendMM 99.28 31   LegendNANA
14:00 25.4 16.8 59 LegendMM LegendMM LegendMM 99.32 31   LegendNANA
15:00 25.3 16.2 57 LegendMM LegendMM LegendMM 99.39 30   LegendNANA
16:00 22.6 15.7 65 LegendMM LegendMM LegendMM 99.48 27   LegendNANA
17:00 20.5 14.4 68 LegendMM LegendMM LegendMM 99.55     LegendNANA
18:00 19.7 14.3 71 LegendMM LegendMM LegendMM 99.59     LegendNANA
19:00 19.0 14.1 73 LegendMM LegendMM LegendMM 99.68     LegendNANA
20:00 18.9 13.8 72 LegendMM LegendMM LegendMM 99.76     LegendNANA
21:00 18.4 13.9 75 LegendMM LegendMM LegendMM 99.87     LegendNANA
22:00 17.7 14.0 79 LegendMM LegendMM LegendMM 99.94     LegendNANA
23:00 17.2 14.3 83 LegendMM LegendMM LegendMM 99.96     LegendNANA

Notes on Data Quality.

Legend

  • E = Estimated
  • M = Missing
  • NA = Not Available
Date modified: